Home   Weather   Mönchengladbach   Past weeks

Flag for Germany Past Weather in Mönchengladbach, North Rhine-Westphalia, Germany — Yesterday and Last 2 Weeks

Now
55 °F

Clear.


Feels Like: 55 °F
Forecast: 55 / 75 °F
Wind: 2 mph from North

Location: Duesseldorf

Current Time: Aug 31, 2016 at 2:35:34 AM

Latest Report: Aug 31, 2016 at 1:50 AM


Visibility: 10 mi

Pressure: 30.18 "Hg

Humidity: 82%

Dew Point: 50 °F

Location of MönchengladbachLocation

Past Weather in Mönchengladbach — Graph

°F

Mönchengladbach Temperature Yesterday

Maximum temperature yesterday: 77 °F (at 4:50 PM)
Minimum temperature yesterday: 50 °F (at 7:20 AM)
Average temperature yesterday: 64 °F

High & Low Weather Summary for the Past Weeks

 TemperatureHumidityPressure
High91 °F (Aug 25, 3:20 PM)100% (Aug 18, 5:20 AM)30.33 "Hg (Aug 18, 5:20 AM)
Low50 °F (Aug 18, 5:20 AM)26% (Aug 25, 3:20 PM)29.77 "Hg (Aug 18, 2:50 PM)
Average70 °F68%30.04 "Hg
* Reported Aug 16 1:20 AM — Aug 31 1:20 AM, Mönchengladbach, Weather by CustomWeather, © 2016

Note: Actual official high and low records may vary slightly from our data, if they occured in-between our weather recording intervals... More about our weather records

Advertising

Mönchengladbach Weather History for the Previous 24 Hours

Scroll right to see more
 ConditionsComfort  
Time TempWeatherWind HumidityBarometerVisibility
1:20 AM
Wed, Aug 31
55 °FClear.2 mph88%30.21 "Hg10 mi
12:50 AM57 °FClear.2 mph77%30.21 "Hg10 mi
12:20 AM57 °FClear.6 mph77%30.21 "Hg10 mi
11:50 PM
Tue, Aug 30
59 °FClear.6 mph72%30.21 "Hg10 mi
11:20 PM61 °FClear.6 mph68%30.21 "Hg10 mi
10:50 PM63 °FClear.8 mph64%30.21 "Hg10 mi
10:20 PM63 °FClear.7 mph64%30.21 "Hg10 mi
9:50 PM63 °FClear.6 mph64%30.21 "Hg10 mi
9:20 PM64 °FSunny.6 mph60%30.21 "Hg10 mi
8:50 PM68 °FSunny.6 mph49%30.21 "Hg10 mi
8:20 PM70 °FSunny.6 mph43%30.21 "Hg10 mi
7:50 PM72 °FSunny.6 mph41%30.21 "Hg10 mi
7:20 PM73 °FSunny.7 mph38%30.21 "Hg10 mi
6:50 PM75 °FSunny.8 mph36%30.21 "Hg10 mi
6:20 PM75 °FPassing clouds.7 mph34%30.24 "HgN/A
5:50 PM75 °FPassing clouds.7 mph34%30.24 "HgN/A
5:20 PM75 °FPassing clouds.7 mph36%30.24 "HgN/A
4:50 PM77 °FSunny.5 mph34%30.24 "Hg10 mi
4:20 PM75 °FPassing clouds.9 mph39%30.24 "HgN/A
3:50 PM75 °FSunny.7 mph36%30.24 "Hg10 mi
3:20 PM75 °FSunny.7 mph41%30.27 "Hg10 mi
2:50 PM73 °FPassing clouds.5 mph44%30.27 "HgN/A
2:20 PM73 °FSunny.2 mph44%30.27 "Hg10 mi
1:50 PM72 °FSunny.5 mph44%30.30 "Hg10 mi
1:20 PM72 °FSunny.6 mph47%30.30 "Hg10 mi
12:50 PM73 °FPassing clouds.8 mph44%30.30 "HgN/A
12:20 PM72 °FPassing clouds.5 mph50%30.30 "HgN/A
11:50 AM72 °FPassing clouds.6 mph53%30.33 "HgN/A
11:20 AM68 °FPassing clouds.3 mph56%30.33 "HgN/A
10:50 AM68 °FPassing clouds.3 mph60%30.33 "HgN/A
10:20 AM66 °FPassing clouds.3 mph68%30.30 "HgN/A
9:50 AM64 °FPassing clouds.2 mph78%30.30 "HgN/A
9:20 AM63 °FSunny.2 mph77%30.30 "Hg10 mi
8:50 AM61 °FSunny.2 mph88%30.30 "Hg10 mi
8:20 AM57 °FSunny.2 mph94%30.30 "Hg10 mi
7:50 AM54 °FSunny.1 mph94%30.30 "Hg10 mi
7:20 AM50 °FFog.1 mph100%30.27 "HgN/A
6:50 AM52 °FFog.2 mph100%30.27 "HgN/A
6:20 AM52 °FFog.3 mph100%30.27 "HgN/A
5:50 AM52 °FFog.2 mph94%30.27 "HgN/A
5:20 AM54 °FFog.2 mph100%30.27 "HgN/A
4:50 AM52 °FClear.1 mph100%30.27 "Hg10 mi
4:20 AM52 °FPassing clouds.2 mph100%30.27 "HgN/A
3:50 AM54 °FPassing clouds.1 mph100%30.27 "HgN/A
3:20 AM54 °FPassing clouds.2 mph100%30.27 "HgN/A
2:50 AM54 °FPassing clouds.2 mph100%30.24 "HgN/A
2:20 AM55 °FPassing clouds.2 mph94%30.24 "HgN/A
Weather by CustomWeather, © 2016

See weather overviewHow to use our weather pages